Location: Brachstadt
(48.6975°N, 10.6755°E)
Time: 09:48:10
(UTC+00:00)

ISS - Visible Passes

Search period start: 04 December 2022 00:00
Search period end: 14 December 2022 00:00
Orbit: 414 x 420 km, 51.6° (Epoch: 04 December)

Date Brightness Start Highest point End Pass type
(mag) Time Alt. Az. Time Alt. Az. Time Alt. Az.
04 Dec -3.8 16:03:50 10° WNW 16:07:12 81° NNE 16:10:33 10° ESE visible
04 Dec -1.7 17:40:56 10° W 17:43:42 24° SW 17:44:45 21° S visible
05 Dec -2.3 16:52:34 10° WNW 16:55:41 36° SSW 16:58:47 10° SE visible
06 Dec -3.0 16:04:19 10° WNW 16:07:36 54° SSW 16:10:53 10° SE visible
06 Dec -0.5 17:42:52 10° WSW 17:43:45 11° SW 17:44:38 10° SSW visible
07 Dec -0.8 16:53:33 10° W 16:55:48 17° SW 16:58:02 10° S visible
08 Dec -1.2 16:04:57 10° W 16:07:46 25° SW 16:10:35 10° SSE visible
10 Dec -0.1 16:06:31 10° WSW 16:07:40 11° SW 16:08:48 10° SSW visible
